TimePDT,TemperatureF,Dew PointF,Humidity,Sea Level PressureIn,VisibilityMPH,Wind Direction,Wind SpeedMPH,Gust SpeedMPH,PrecipitationIn,Events,Conditions,WindDirDegrees,DateUTC
12:53 AM,57.9,57.0,97,29.95,10.0,SSW,8.1,-,0.00,,Overcast,200,2012-10-28 07:53:00
1:53 AM,57.0,55.9,96,29.96,10.0,SSW,4.6,-,N/A,,Scattered Clouds,210,2012-10-28 08:53:00
2:53 AM,57.0,55.0,93,29.96,10.0,SSW,6.9,-,N/A,,Clear,200,2012-10-28 09:53:00
3:53 AM,57.0,55.0,93,29.96,10.0,SW,10.4,-,N/A,,Clear,220,2012-10-28 10:53:00
4:53 AM,57.0,55.0,93,29.96,10.0,NNW,3.5,-,N/A,,Clear,340,2012-10-28 11:53:00
5:53 AM,55.0,54.0,96,29.94,10.0,Calm,Calm,-,N/A,,Clear,0,2012-10-28 12:53:00
6:53 AM,54.0,53.1,97,29.95,10.0,NW,3.5,-,N/A,,Mostly Cloudy,320,2012-10-28 13:53:00
7:14 AM,53.6,53.6,100,29.95,10.0,Calm,Calm,-,N/A,,Mostly Cloudy,0,2012-10-28 14:14:00
7:30 AM,53.6,53.6,100,29.95,10.0,Calm,Calm,-,N/A,,Mostly Cloudy,0,2012-10-28 14:30:00
7:53 AM,54.0,53.1,97,29.96,10.0,NW,3.5,-,N/A,,Overcast,320,2012-10-28 14:53:00
8:32 AM,53.6,53.6,100,29.96,10.0,WNW,3.5,-,N/A,,Scattered Clouds,290,2012-10-28 15:32:00
8:53 AM,54.0,53.1,97,29.96,10.0,Calm,Calm,-,N/A,,Partly Cloudy,0,2012-10-28 15:53:00
10:53 AM,57.9,55.9,93,29.96,10.0,Calm,Calm,-,N/A,,Partly Cloudy,0,2012-10-28 17:53:00
11:53 AM,61.0,54.0,78,29.96,10.0,Calm,Calm,-,0.00,Rain,Light Rain,0,2012-10-28 18:53:00
12:53 PM,60.1,55.9,86,29.95,10.0,Calm,Calm,-,0.01,Rain,Light Rain,0,2012-10-28 19:53:00
1:44 PM,59.0,57.2,94,29.93,5.0,SSE,4.6,-,0.06,Rain,Rain,150,2012-10-28 20:44:00
1:53 PM,59.0,57.0,93,29.93,5.0,SE,6.9,-,0.07,Rain,Rain,140,2012-10-28 20:53:00
2:36 PM,53.6,50.0,88,29.92,7.0,South,4.6,-,0.05,Rain,Light Rain,170,2012-10-28 21:36:00
2:53 PM,54.0,50.0,86,29.92,7.0,South,4.6,-,0.07,Rain,Light Rain,190,2012-10-28 21:53:00
3:53 PM,53.1,51.1,93,29.90,5.0,South,3.5,-,0.08,Rain,Rain,180,2012-10-28 22:53:00
4:15 PM,53.6,51.8,94,29.90,2.5,Calm,Calm,-,0.05,Rain,Heavy Rain,0,2012-10-28 23:15:00
4:23 PM,53.6,51.8,94,29.90,3.0,Calm,Calm,-,0.07,Rain,Light Rain,0,2012-10-28 23:23:00
4:30 PM,53.6,51.8,94,29.91,2.5,Calm,Calm,-,0.08,Rain,Rain,0,2012-10-28 23:30:00
4:51 PM,53.6,51.8,94,29.90,2.5,Calm,Calm,-,0.12,Rain,Light Rain,0,2012-10-28 23:51:00
4:53 PM,53.1,51.1,93,29.89,2.5,Calm,Calm,-,0.12,Rain,Light Rain,0,2012-10-28 23:53:00
5:00 PM,53.6,51.8,94,29.89,4.0,Calm,Calm,-,0.00,Rain,Light Rain,0,2012-10-29 00:00:00
5:39 PM,53.6,51.8,94,29.88,9.0,Calm,Calm,-,0.02,Rain,Light Rain,0,2012-10-29 00:39:00
5:53 PM,53.1,52.0,96,29.88,8.0,Calm,Calm,-,0.02,Rain,Light Rain,0,2012-10-29 00:53:00
6:09 PM,53.6,51.8,94,29.88,6.0,ESE,3.5,-,0.02,Rain,Light Rain,120,2012-10-29 01:09:00
6:18 PM,53.6,51.8,94,29.88,6.0,ESE,3.5,-,0.02,Rain,Light Rain,120,2012-10-29 01:18:00
6:53 PM,53.1,52.0,96,29.87,7.0,Calm,Calm,-,0.02,Rain,Light Rain,0,2012-10-29 01:53:00
7:53 PM,53.1,51.1,93,29.86,4.0,Calm,Calm,-,0.05,Rain,Light Rain,0,2012-10-29 02:53:00
8:14 PM,53.6,51.8,94,29.85,10.0,Calm,Calm,-,0.00,,Overcast,0,2012-10-29 03:14:00
8:45 PM,53.6,51.8,94,29.85,10.0,Calm,Calm,-,0.00,,Overcast,0,2012-10-29 03:45:00
8:53 PM,53.1,52.0,96,29.84,9.0,Calm,Calm,-,0.00,,Overcast,0,2012-10-29 03:53:00
9:41 PM,53.6,51.8,94,29.84,9.0,Calm,Calm,-,N/A,,Overcast,0,2012-10-29 04:41:00
9:50 PM,53.6,51.8,94,29.83,7.0,Calm,Calm,-,N/A,,Overcast,0,2012-10-29 04:50:00
9:53 PM,53.1,52.0,96,29.83,7.0,Calm,Calm,-,N/A,,Overcast,0,2012-10-29 04:53:00
10:01 PM,53.6,51.8,94,29.83,8.0,Calm,Calm,-,0.00,Rain,Light Rain,0,2012-10-29 05:01:00
10:19 PM,53.6,51.8,94,29.83,9.0,NNW,3.5,-,0.01,Rain,Light Rain,340,2012-10-29 05:19:00
10:33 PM,53.6,51.8,94,29.83,7.0,Calm,Calm,-,0.01,,Overcast,0,2012-10-29 05:33:00
10:53 PM,54.0,53.1,97,29.83,7.0,Calm,Calm,-,0.01,,Overcast,0,2012-10-29 05:53:00
11:53 PM,60.1,57.0,90,29.82,10.0,SE,11.5,-,0.00,,Overcast,140,2012-10-29 06:53:00